Location: L�Ave Maria
(50.7161°N, 1.5911°E)
Time: 23:49:11
(UTC+00:00)

Cosmos 2151 - Pass Details

Date: 10 July 2020
Orbit: 580 x 602 km, 82.5° (Epoch: 14 August)

Event Time Altitude Azimuth Distance (km) Brightness Sun altitude
Exits shadow 22:29:09 22° 185° (S) 1,333 4.2 -14.5°
Maximum altitude 22:31:55 83° 101° (E) 606 2.9 -14.7°
Drops below altitude 10° 22:36:12 10° 12° (NNE) 1,936 6.5 -14.9°
Sets 22:38:25 0° 11° (NNE) 2,839 7.5 -15.1°
